Regional Weather Roundup
Issued by NWS

Home | Current Version | Previous Version | Text Only | Print | Product List | Glossary On
Versions: 1 2 3 4 5 6 7 8 9 10 11 12 13 14 15 16 17 18 19 20 21 22 23 24 25 26 27 28 29 30 31 32 33 34 35 36 37 38 39 40 41 42 43 44 45 46 47 48 49 50
000
ASUS45 KTFX 191110
RWRMT
MONTANA REGIONAL WEATHER ROUNDUP
NATIONAL WEATHER SERVICE GREAT FALLS MT
500 AM MDT THU OCT 19 2017

NOTE: "FAIR" INDICATES FEW OR NO CLOUDS BELOW 12000 FEET WITH NO
SIGNIFICANT WEATHER AND/OR OBSTRUCTIONS TO VISIBILITY.

MTZ001>007-043-191200-
WEST OF THE DIVIDE

CITY           SKY/WX    TMP DP  RH WIND       PRES   REMARKS
KALISPELL      MOCLDY    53  39  59 S8        29.64F
MISSOULA       CLEAR     36  33  89 CALM      29.74F
BUTTE          CLOUDY    37  25  61 SE5       29.89F
MULLAN PASS    CLOUDY    44  26  49 SW10G20   29.76F
ANACONDA         N/A     52  19  28 S15G22    29.84F
DEER LODGE       N/A     46  25  42 SW7       29.83F
EUREKA           N/A     61  32  33 MISG        N/A
HAMILTON         N/A     55  25  30 S12       29.75F
LIBBY            N/A     63  30  29 S5        29.59S
PLAINS           N/A     33  28  82 CALM      29.72F
RONAN            N/A     36  31  82 CALM      29.75F
$$

MTZ008-052>055-191200-
SOUTHWEST MONTANA

CITY           SKY/WX    TMP DP  RH WIND       PRES   REMARKS
BOZEMAN        CLOUDY    41  27  57 E6        29.86F
DILLON         CLOUDY    43  22  43 S8        29.90F
W YELLOWSTONE  CLOUDY    25  21  86 CALM      30.06F
ENNIS          CLOUDY    48  23  37 S17G26    29.97F
THREE FORKS      N/A     60  21  22 S23       29.83F
TWIN BRIDGES     N/A     44  20  38 CALM      29.90F
$$

MTZ009-010-012-014-046-048-049-054-191200-
EAST SLOPES AND CENTRAL MONTANA

CITY           SKY/WX    TMP DP  RH WIND       PRES   REMARKS
CUT BANK       CLOUDY    56  25  30 W15       29.59R
GREAT FALLS    CLOUDY    61  20  20 SW22G30   29.66F
MALMSTROM AFB  CLOUDY    58  24  27 SW20      29.68S
HELENA         CLOUDY    44  31  60 W5        29.75F
BOWMANS CRNR     N/A     55  21  26 S22       29.67S
CHOTEAU          N/A     63  21  20 SW24G30   29.64F
FAIRFIELD        N/A     54  22  29 S10       29.64F
POWER            N/A     56  22  26 S18       29.65F
RAYNESFORD       N/A     60  22  23 W3        29.71F
ULM              N/A     59  23  24 S17       29.67F
$$

MTZ011-013-016-021-045-047-050-051-191200-
NORTH CENTRAL MONTANA

CITY           SKY/WX    TMP DP  RH WIND       PRES   REMARKS
HAVRE          CLOUDY    62  27  26 SW23G31   29.57F
LEWISTOWN      CLOUDY    53  27  36 W10       29.76R
N BAR RANCH      N/A     54  25  32 VRB7G13   29.81R
CHINOOK          N/A     66  25  20 SW10      29.59F
DENTON           N/A     56  25  29 SW13      29.68F
GEYSER           N/A     53  23  30 W7        29.72F
GRASS RANGE      N/A     55  26  31 W8        29.72F
JUDITH GAP       N/A     52  25  35 SE6       29.80F
WINIFRED         N/A     57  26  31 MISG      29.71F
$$

MTZ017>020-022>027-061-062-191200-
NORTHEAST MONTANA

CITY           SKY/WX    TMP DP  RH WIND       PRES   REMARKS
GLASGOW        CLOUDY    45  36  70 SE9       29.66F
JORDAN           N/A     47  32  56 CALM      29.72S
SIDNEY         PTCLDY    39  30  70 S10       29.73F
WOLF POINT     CLOUDY    37  27  67 NE3       29.69F
MALTA          CLEAR     45  34  65 W9        29.65S
PLENTYWOOD       N/A     41  27  56 CALM      29.68F
POPLAR           N/A     43  27  52 S3        29.69F
SCOBEY           N/A     43  24  47 S5        29.66F
$$

MTZ028>42-056>058-191200-
SOUTHCENTRAL AND SOUTHEAST MONTANA

CITY           SKY/WX    TMP DP  RH WIND       PRES   REMARKS
BAKER          CLOUDY    36  29  75 CALM      29.81S
BILLINGS       CLOUDY    58  25  28 SW10      29.81F
LIVINGSTON     CLOUDY    57  24  28 SW30G41   29.84F
MILES CITY     CLOUDY    45  33  63 S9        29.77S
BIG TIMBER     CLEAR     57  21  24 W13       29.86R
EKALAKA          N/A     56  19  23 CALM      29.83F
FORSYTH          N/A     43  32  65 CALM      29.76F
HARLOWTON        N/A     50  26  38 MISG      29.80F
LAUREL           N/A     55  23  28 W14       29.82S
$$

REGIONAL REPORTS...DAKOTAS

CITY           SKY/WX    TMP DP  RH WIND       PRES   REMARKS
WILLISTON      CLOUDY    40  28  62 S3        29.72F
MINOT          CLOUDY    47  28  47 S9        29.73F
DICKINSON      CLOUDY    41  27  57 S5        29.77S
BEACH            N/A     37  28  70 S8        29.81R WCI  31
CROSBY           N/A     41  28  60 S14       29.69F
TIOGA            N/A     41  28  60 VRB3      29.74F
WATFORD CITY     N/A     36  28  75 CALM      29.73F
BISMARCK       CLOUDY    37  27  67 E3        29.82F
GRAND FORKS    CLOUDY    33  27  78 S5        29.88F
FARGO          CLOUDY    37  28  70 SE8       29.93S WCI  31
BUFFALO SD       N/A     45  27  49 CALM      29.77S
RAPID CITY     CLOUDY    47  26  44 VRB3      29.87F
$$

REGIONAL REPORTS...WYOMING/IDAHO/WASHINGTON

CITY           SKY/WX    TMP DP  RH WIND       PRES   REMARKS
GILLETTE       CLOUDY    53  20  27 VRB3      29.90R
SHERIDAN       CLOUDY    43  29  57 SW3       29.87S
BUFFALO WY     CLOUDY    53  20  27 SW9       29.93S
CODY           CLOUDY    54  21  27 VRB6      29.96F
YELLOWSTONE LA   N/A     26  23  88 NW3       30.13F
IDAHO FALLS    CLEAR     33  27  78 N7        30.00F WCI  27
SALMON         CLOUDY    33  26  75 SE3       29.89F
BOISE          PTCLDY    51  28  41 SE12      29.82F
SPOKANE        CLOUDY    56  42  59 S14G23    29.62F
$$

REGIONAL REPORTS...ALBERTA

CITY           SKY/WX    TMP DP  RH WIND       PRES   REMARKS
EDMONTON       CLEAR     37  28  70 W2        29.30R
CALGARY        PTCLDY    54  34  47 W13G23    29.30R
LETHBRIDGE     CLEAR     57  32  38 SW24G35   29.45F
MEDICINE HAT   CLEAR     59  34  38 S16G22    29.48F
$$

REGIONAL REPORTS...SASKATCHEWAN

CITY           SKY/WX    TMP DP  RH WIND       PRES   REMARKS
SWIFT CURRENT  CLOUDY    55  36  47 SW17G24   29.52S
REGINA         PTCLDY    36  21  55 SE13      29.59F WCI  27
SASKATOON      CLOUDY    41  25  52 SE12      29.46F
$$



USA.gov is the U.S. government's official web portal to all federal, state and local government web resources and services.